This demonstration page uses our WeatherBlox Daily Observations layout. Learn more.

Hourly Observations for November 3, 2018

Temp ( °F °C ) Dew Point ( °F °C ) Humidity (%) Winds ( mph kmh ) Pressure ( in mb ) Visibility ( mi km ) Precip ( " mm )
12:15 am 00:15 Cloudy 40 4.6 37 2.7 88 88 SE 14 22 29.8 1009 10 16.09344 0 0
12:35 am 00:35 Cloudy 40 4.6 37 2.7 88 88 SE 17 28 29.77 1008 10 16.09344 0 0
12:55 am 00:55 Cloudy 40 4.6 37 2.9 89 89 SE 17 28 29.77 1008 10 16.09344 0 0
1:15 am 01:15 Cloudy 40 4.6 37 2.7 88 88 SE 14 22 29.77 1008 10 16.09344 0 0
1:35 am 01:35 Partly Cloudy 40 4.3 37 2.8 90 90 SE 13 20 29.77 1008 10 16.09344 0 0
1:55 am 01:55 Clear 40 4.3 37 2.9 91 91 SSE 9 15 29.77 1008 10 16.09344 0 0
2:15 am 02:15 Mostly Cloudy 40 4.2 37 3 92 92 SE 7 11 29.8 1009 10 16.09344 0 0
2:35 am 02:35 Cloudy 40 4.2 37 2.8 91 91 SE 9 15 29.77 1008 10 16.09344 0 0
2:55 am 02:55 Cloudy 40 4.2 37 3 92 92 SSE 10 17 29.77 1008 10 16.09344 0 0
3:15 am 03:15 Cloudy 40 4.2 37 2.8 91 91 SE 13 20 29.74 1007 10 16.09344 0 0
3:35 am 03:35 Mostly Cloudy 39 4 37 2.6 91 91 SE 14 22 29.74 1007 10 16.09344 0 0
3:55 am 03:55 Mostly Cloudy 39 4.1 37 2.7 91 91 SE 13 20 29.74 1007 10 16.09344 0 0
4:15 am 04:15 Cloudy 40 4.2 37 2.8 91 91 SE 14 22 29.71 1006 10 16.09344 0 0
4:35 am 04:35 Mostly Cloudy 40 4.5 37 2.5 87 87 SE 10 17 29.71 1006 10 16.09344 0 0
4:55 am 04:55 Mostly Cloudy 40 4.5 37 2.5 87 87 SSE 10 17 29.71 1006 10 16.09344 0 0
5:15 am 05:15 Mostly Cloudy 41 4.9 37 2.5 85 85 SSE 9 15 29.71 1006 10 16.09344 0 0
5:35 am 05:35 Cloudy 41 5 37 2.5 84 84 SE 6 9 29.71 1006 10 16.09344 0 0
5:55 am 05:55 Cloudy 41 4.9 37 2.5 85 85 SSE 3 6 29.74 1007 10 16.09344 0 0
6:15 am 06:15 Cloudy 41 4.8 36 2.3 84 84 Calm 29.74 1007 10 16.09344 0 0
6:35 am 06:35 Cloudy 39 4.1 37 3 93 93 Calm 29.74 1007 10 16.09344 0 0
6:55 am 06:55 Cloudy 39 4.1 38 3.1 93 93 Calm 29.74 1007 10 16.09344 0 0
7:15 am 07:15 Cloudy 40 4.2 38 3.2 93 93 ENE 3 6 29.74 1007 10 16.09344 0 0
7:35 am 07:35 Cloudy 39 4 38 3.3 95 95 Calm 29.74 1007 10 16.09344 0 0
7:55 am 07:55 Cloudy 39 4 38 3.5 97 97 NE 6 9 29.77 1008 10 16.09344 0 0
8:15 am 08:15 Cloudy 39 4.1 38 3.6 97 97 NE 5 7 29.77 1008 10 16.09344 0 0
8:35 am 08:35 Cloudy 39 4 39 3.7 98 98 NE 3 6 29.77 1008 10 16.09344 0 0
8:55 am 08:55 Mostly Cloudy with Light Rain 39 4.1 39 3.8 98 98 N 5 7 29.8 1009 10 16.09344 0 0
9:15 am 09:15 Partly Cloudy 40 4.3 39 4.1 99 99 NNW 3 6 29.8 1009 10 16.09344 0 0
9:35 am 09:35 Sunny 40 4.5 40 4.2 98 98 NNW 5 7 29.83 1010 10 16.09344 0 0
9:55 am 09:55 Sunny 41 5.1 41 4.8 98 98 NNW 6 9 29.83 1010 10 16.09344 0 0
10:15 am 10:15 Mostly Cloudy 43 6 41 5 93 93 NW 9 15 29.83 1010 10 16.09344 0 0
10:35 am 10:35 Partly Cloudy 44 6.4 40 4.6 88 88 NW 13 20 29.83 1010 10 16.09344 0 0
10:55 am 10:55 Partly Cloudy 44 6.7 41 4.9 88 88 NW 14 22 29.83 1010 10 16.09344 0 0
11:15 am 11:15 Partly Cloudy 46 7.5 42 5.4 87 87 NNW 13 20 29.8 1009 10 16.09344 0 0
11:35 am 11:35 Partly Cloudy 45 7.2 40 4.5 83 83 NNW 17 28 29.8 1009 10 16.09344 0 0
11:55 am 11:55 Partly Cloudy 45 7.1 41 5 87 87 N 17 28 29.83 1010 10 16.09344 0 0
12:15 pm 12:15 Mostly Cloudy 45 7.2 41 5 86 86 NNW 17 28 29.8 1009 10 16.09344 0 0
12:35 pm 12:35 Cloudy 45 7.3 41 5 85 85 NNW 15 24 29.8 1009 10 16.09344 0 0
12:55 pm 12:55 Cloudy 46 7.7 42 5.5 86 86 N 16 26 29.8 1009 10 16.09344 0 0
1:15 pm 13:15 Cloudy 47 8.1 42 5.5 84 84 NNW 14 22 29.8 1009 10 16.09344 0 0
1:35 pm 13:35 Cloudy 47 8.1 42 5.3 83 83 NNW 16 26 29.8 1009 10 16.09344 0 0
1:55 pm 13:55 Cloudy 46 8 41 5 82 82 NNW 17 28 29.83 1010 10 16.09344 0 0
2:15 pm 14:15 Cloudy 46 8 40 4.7 80 80 N 16 26 29.83 1010 10 16.09344 0 0
2:35 pm 14:35 Cloudy 47 8.1 41 4.8 80 80 NNW 21 33 29.83 1010 10 16.09344 0 0
2:55 pm 14:55 Cloudy 47 8.6 41 5.1 79 79 N 18 30 29.83 1010 10 16.09344 0 0
3:15 pm 15:15 Cloudy 47 8.5 41 5.2 80 80 N 17 28 29.83 1010 10 16.09344 0 0
3:35 pm 15:35 Cloudy 47 8.2 41 5.1 81 81 N 17 28 29.85 1011 10 16.09344 0 0
3:55 pm 15:55 Cloudy 46 8 41 5 82 82 NNW 17 28 29.85 1011 10 16.09344 0 0
4:15 pm 16:15 Cloudy 45 7.2 41 4.8 85 85 N 17 28 29.91 1013 10 16.09344 0 0
4:35 pm 16:35 Cloudy 45 7.2 40 4.5 83 83 N 16 26 29.91 1013 10 16.09344 0 0
4:55 pm 16:55 Cloudy 45 7.4 40 4.3 81 81 N 16 26 29.91 1013 10 16.09344 0 0
5:15 pm 17:15 Cloudy 45 7.3 39 4.1 80 80 N 16 26 29.91 1013 10 16.09344 0 0
5:35 pm 17:35 Cloudy 45 7.2 39 4 80 80 N 15 24 29.94 1014 10 16.09344 0 0
5:55 pm 17:55 Cloudy 45 7 39 4 81 81 N 13 20 29.94 1014 10 16.09344 0 0
6:15 pm 18:15 Cloudy 44 6.5 39 3.8 83 83 NNW 15 24 29.97 1015 10 16.09344 0 0
6:35 pm 18:35 Cloudy 44 6.4 39 3.7 83 83 NNW 17 28 29.97 1015 10 16.09344 0 0
6:55 pm 18:55 Cloudy 43 6.1 39 3.7 85 85 NNW 12 19 29.97 1015 10 16.09344 0 0
7:15 pm 19:15 Cloudy 43 6 39 3.8 86 86 N 12 19 29.97 1015 10 16.09344 0 0
7:35 pm 19:35 Cloudy 42 5.8 38 3.6 86 86 NNW 15 24 30 1016 10 16.09344 0 0
7:55 pm 19:55 Cloudy 42 5.6 39 3.7 88 88 N 14 22 30.03 1017 10 16.09344 0 0
8:15 pm 20:15 Cloudy 42 5.5 38 3.6 88 88 NNW 13 20 30.03 1017 10 16.09344 0 0
8:35 pm 20:35 Cloudy 42 5.3 38 3.5 88 88 NNW 14 22 30.03 1017 10 16.09344 0 0
8:55 pm 20:55 Cloudy 42 5.3 38 3.6 89 89 NNW 14 22 30.03 1017 10 16.09344 0 0
9:15 pm 21:15 Cloudy 41 5.2 39 3.7 90 90 N 12 19 30.03 1017 10 16.09344 0 0
9:35 pm 21:35 Cloudy 41 5 39 4 93 93 NNW 10 17 30.06 1018 10 16.09344 0 0
9:55 pm 21:55 Cloudy 41 5.1 39 4.1 93 93 NNW 9 15 30.06 1018 10 16.09344 0 0
10:15 pm 22:15 Cloudy 41 5.1 40 4.2 94 94 NNW 9 15 30.06 1018 10 16.09344 0 0
10:35 pm 22:35 Cloudy 41 5.1 40 4.3 95 95 N 10 17 30.06 1018 10 16.09344 0 0
10:55 pm 22:55 Cloudy 41 5.1 40 4.2 94 94 N 9 15 30.09 1019 10 16.09344 0 0
11:15 pm 23:15 Cloudy 41 5 39 4.1 94 94 N 12 19 30.09 1019 10 16.09344 0 0
11:35 pm 23:35 Cloudy with Mist and Fog 40 4.7 39 4 95 95 N 12 19 30.09 1019 5 8.04672 0 0
11:55 pm 23:55 Cloudy with Light Rain 40 4.3 40 4.2 99 99 N 12 19 30.09 1019 5 8.04672 0 0

Powered by AerisWeather